User: anonymous   Login
Location: Oshawa
(43.9000°N, 78.8670°W)
Time: 03:59:58
(UTC-04:00)
Language:

IDEFIX/ARIANE 42P - Orbit

View from above orbital plane
View from above orbital plane
View from above satellite
View from above satellite

Ground track
Ground track

The orbit data is extracted from the following two-line orbital elements,

1 27422U 02021B   16143.94004105 +.00000009 +00000-0 +19436-4 0  9996
2 27422 098.2310 159.8564 0011336 318.4862 041.5460 14.29242483732827
Epoch (UTC): 22 May 2016 22:33:39
Eccentricity: 0.0011336
inclination: 98.2310°
perigee height: 786 km
apogee height: 802 km
right ascension of ascending node: 159.8564°
argument of perigee: 318.4862°
revolutions per day: 14.29242483
mean anomaly at epoch: 41.5460°
orbit number at epoch: 73282

The dashed part of the orbit path shows where the satellite is in the earth's shadow,  

DLR